Tracking 30106 objects as of 23-Jan-2025
HD Live streaming from Space Station
objects crossing your sky now

SOLRAD 11A

Track SOLRAD 11A now!
SOLRAD 11A is classified as:


NORAD ID: 8748
Int'l Code: 1976-023C
Perigee: 117,255.9 km
Apogee: 119,722.2 km
Inclination: 16.0 °
Period: 7,318.0 minutes
Semi major axis: 124860 km
RCS: Unknown
Launch date: March 15, 1976
Source: United States (US)
Launch site: AIR FORCE EASTERN TEST RANGE (AFETR)
Your satellite tracking list
Your tracking list is empty




NASA's NSSDC Master Catalog

Two Line Element Set (TLE):
1 08748U 76023C   25025.93066752 -.00000497  00000-0  00000-0 0  9998
2 08748  16.0018 342.2166 0098764 180.4224   6.7469  0.19677394  4466
Source of the keplerian elements: AFSPC